Weather History for Maple Lake, MN

Change the Weather History Date:

Friday, November 1, 2013

  Actual Average (KSTC) Record (KSTC)
Temperature  
Mean Temperature 43 °F 39 °F  
Max Temperature 49 °F 48 °F 73 °F (1944)
Min Temperature 37 °F 29 °F 2 °F (1951)
Degree Days  
Heating Degree Days 22 26  
Month to date heating degree days 26  
Since 1 July heating degree days 911  
Cooling Degree Days 0 0  
Month to date cooling degree days 0  
Year to date cooling degree days 465  
Moisture  
Dew Point 38 °F    
Average Humidity 84    
Maximum Humidity 95    
Minimum Humidity 64    
Precipitation  
Precipitation 0.00 in 0.05 in 0.93 in (2000)
Month to date precipitation 0.05  
Year to date precipitation 25.58  
Snow  
Snow 0.00 in 0.10 in 9.00 in (1991)
Month to date snowfall 0.1  
Since 1 July snowfall 0.9  
Since 1 September snowfall 0.9  
Snow Depth -    
Sea Level Pressure  
Sea Level Pressure 29.63 in    
Wind  
Wind Speed 7 mph (WNW)    
Max Wind Speed 12 mph    
Max Gust Speed 16 mph    
Visibility 9 miles    
Events      
T = Trace of Precipitation, MM = Missing Value Source: NWS Daily Summary

Daily Weather History Graph

Daily Weather History Graph

Search for Another Location

Airport:

Trip Planner

Search our weather history database for the weather conditions in past years. The results will help you decide how hot, cold, wet, or windy it might be!

Date:

Astronomy

Nov. 01, 2013 Rise Set
Actual Time 7:55 AM CDT 6:03 PM CDT
Civil Twilight 7:24 AM CDT 6:33 PM CDT
Nautical Twilight 6:49 AM CDT 7:08 PM CDT
Astronomical Twilight 6:15 AM CDT 7:42 PM CDT
Moon 5:43 AM CDT (11/1) 5:00 PM CDT (11/1)
Length of Visible Light 11h 09m
Length of Day
10h 07m
Waning Crescent, 4% of the Moon is Illuminated
Nov 1
Waning Crescent
Nov 3
New
Nov 9
First Quarter
Nov 17
Full
Nov 25
Last Quarter

Hourly Weather History & Observations

Time (CDT) Temp. Windchill Dew Point Humidity Pressure Visibility Wind Dir Wind Speed Gust Speed Precip Events Conditions
12:16 AM 41.0 °F 36.4 °F 38.8 °F 92% 29.43 in 10.0 mi NW 6.9 mph - N/A   Overcast
12:36 AM 41.0 °F 38.0 °F 39.2 °F 93% 29.43 in 10.0 mi NW 4.6 mph - N/A   Overcast
12:57 AM 41.0 °F 38.0 °F 39.2 °F 93% 29.43 in 10.0 mi WNW 4.6 mph - N/A   Overcast
1:16 AM 41.0 °F 37.1 °F 39.2 °F 93% 29.44 in 10.0 mi WNW 5.8 mph - N/A   Overcast
1:36 AM 41.2 °F 37.3 °F 39.4 °F 93% 29.45 in 10.0 mi WNW 5.8 mph - N/A   Overcast
1:57 AM 41.0 °F 36.4 °F 39.6 °F 95% 29.46 in 10.0 mi WNW 6.9 mph - N/A   Light Drizzle
2:16 AM 41.2 °F 38.2 °F 39.7 °F 95% 29.47 in 10.0 mi WNW 4.6 mph - N/A   Overcast
2:37 AM 41.2 °F 36.6 °F 39.7 °F 95% 29.47 in 7.0 mi WNW 6.9 mph - N/A   Overcast
2:56 AM 41.0 °F 36.4 °F 39.6 °F 95% 29.47 in 7.0 mi WNW 6.9 mph - N/A   Overcast
3:16 AM 41.0 °F 35.8 °F 39.4 °F 94% 29.48 in 7.0 mi WNW 8.1 mph - N/A   Overcast
3:36 AM 40.3 °F 36.3 °F 38.7 °F 94% 29.48 in 5.0 mi WNW 5.8 mph - N/A   Scattered Clouds
3:56 AM 40.1 °F 36.9 °F 38.5 °F 94% 29.48 in 5.0 mi West 4.6 mph - N/A   Scattered Clouds
4:16 AM 40.1 °F 36.9 °F 38.5 °F 94% 29.48 in 5.0 mi West 4.6 mph - N/A   Scattered Clouds
4:36 AM 39.6 °F 35.4 °F 37.9 °F 94% 29.49 in 5.0 mi West 5.8 mph - N/A   Mostly Cloudy
4:57 AM 39.6 °F 35.4 °F 38.1 °F 95% 29.50 in 7.0 mi West 5.8 mph - N/A   Overcast
5:16 AM 40.1 °F 35.3 °F 38.1 °F 93% 29.50 in 7.0 mi West 6.9 mph - N/A   Overcast
5:37 AM 40.1 °F 36.1 °F 37.9 °F 92% 29.51 in 7.0 mi West 5.8 mph - N/A   Scattered Clouds
5:56 AM 39.7 °F 35.6 °F 37.9 °F 93% 29.52 in 7.0 mi West 5.8 mph - N/A   Clear
6:16 AM 39.6 °F 35.4 °F 37.6 °F 93% 29.52 in 10.0 mi West 5.8 mph - N/A   Clear
6:36 AM 39.4 °F 35.2 °F 37.4 °F 93% 29.53 in 10.0 mi West 5.8 mph - N/A   Scattered Clouds
6:56 AM 39.0 °F 34.0 °F 36.9 °F 92% 29.53 in 10.0 mi West 6.9 mph - N/A   Scattered Clouds
7:16 AM 38.3 °F 33.2 °F 36.3 °F 93% 29.54 in 10.0 mi West 6.9 mph - N/A   Clear
7:36 AM 37.9 °F 32.1 °F 35.8 °F 92% 29.54 in 10.0 mi West 8.1 mph - N/A   Clear
7:56 AM 37.4 °F 31.4 °F 35.2 °F 92% 29.55 in 10.0 mi WNW 8.1 mph - N/A   Clear
8:17 AM 37.2 °F 31.2 °F 35.1 °F 92% 29.56 in 10.0 mi West 8.1 mph - N/A   Clear
8:36 AM 37.4 °F 32.8 °F 35.2 °F 92% 29.57 in 10.0 mi WNW 5.8 mph - N/A   Clear
8:56 AM 38.3 °F 33.2 °F 35.6 °F 90% 29.57 in 10.0 mi WNW 6.9 mph - N/A   Clear
9:17 AM 38.8 °F 33.2 °F 35.4 °F 88% 29.58 in 10.0 mi WNW 8.1 mph - N/A   Clear
9:36 AM 39.4 °F 32.3 °F 35.2 °F 85% 29.59 in 10.0 mi WNW 11.5 mph - N/A   Clear
9:56 AM 40.3 °F 33.4 °F 35.6 °F 83% 29.60 in 10.0 mi WNW 11.5 mph 16.1 mph N/A   Clear
10:17 AM 41.4 °F 35.7 °F 36.3 °F 82% 29.60 in 10.0 mi NW 9.2 mph - N/A   Clear
10:36 AM 42.1 °F 36.1 °F 36.5 °F 81% 29.61 in 10.0 mi WNW 10.4 mph - N/A   Clear
10:56 AM 42.4 °F 37.5 °F 36.5 °F 79% 29.61 in 10.0 mi NW 8.1 mph - N/A   Clear
11:16 AM 44.1 °F 39.0 °F 37.0 °F 76% 29.61 in 10.0 mi NW 9.2 mph - N/A   Clear
11:36 AM 44.8 °F 39.0 °F 36.7 °F 73% 29.62 in 10.0 mi WNW 11.5 mph - N/A   Clear
11:57 AM 45.5 °F 40.8 °F 37.2 °F 73% 29.63 in 10.0 mi WNW 9.2 mph - N/A   Clear
12:17 PM 45.9 °F 41.2 °F 37.0 °F 71% 29.63 in 10.0 mi NW 9.2 mph - N/A   Clear
12:36 PM 46.4 °F 42.9 °F 37.2 °F 70% 29.63 in 10.0 mi WNW 6.9 mph - N/A   Clear
12:56 PM 47.3 °F - 37.6 °F 69% 29.63 in 10.0 mi WNW 8.1 mph - N/A   Clear
1:16 PM 47.1 °F - 37.4 °F 69% 29.63 in 10.0 mi West 6.9 mph - N/A   Mostly Cloudy
1:36 PM 48.4 °F - 38.1 °F 68% 29.63 in 10.0 mi WNW 8.1 mph - N/A   Overcast
1:56 PM 48.9 °F - 38.1 °F 66% 29.64 in 10.0 mi NW 8.1 mph - N/A   Overcast
2:16 PM 49.3 °F - 37.6 °F 64% 29.64 in 10.0 mi NW 9.2 mph 16.1 mph N/A   Mostly Cloudy
2:36 PM 48.9 °F - 37.4 °F 64% 29.65 in 10.0 mi WNW 6.9 mph - N/A   Overcast
2:56 PM 49.1 °F - 38.5 °F 67% 29.65 in 10.0 mi WNW 9.2 mph - N/A   Overcast
3:16 PM 49.3 °F - 38.3 °F 66% 29.65 in 10.0 mi WNW 9.2 mph - N/A   Overcast
3:37 PM 49.1 °F - 38.5 °F 67% 29.67 in 10.0 mi WNW 9.2 mph - N/A   Overcast
3:56 PM 49.1 °F - 38.7 °F 67% 29.67 in 10.0 mi NW 11.5 mph 16.1 mph N/A   Overcast
4:16 PM 48.6 °F - 38.7 °F 69% 29.68 in 10.0 mi WNW 8.1 mph - N/A   Overcast
4:36 PM 47.8 °F - 39.2 °F 72% 29.69 in 10.0 mi WNW 10.4 mph - N/A   Overcast
4:56 PM 47.3 °F - 39.2 °F 73% 29.70 in 10.0 mi WNW 8.1 mph - N/A   Overcast
5:17 PM 46.9 °F - 40.1 °F 77% 29.71 in 10.0 mi West 6.9 mph - N/A   Overcast
5:36 PM 46.2 °F 42.2 °F 40.1 °F 79% 29.72 in 10.0 mi WNW 8.1 mph - N/A   Overcast
5:57 PM 45.5 °F 41.8 °F 39.9 °F 81% 29.73 in 10.0 mi WNW 6.9 mph - N/A   Overcast
6:16 PM 44.8 °F 41.6 °F 39.6 °F 82% 29.74 in 10.0 mi WNW 5.8 mph - N/A   Overcast
6:36 PM 44.1 °F 40.8 °F 39.6 °F 84% 29.75 in 10.0 mi NW 5.8 mph - N/A   Mostly Cloudy
6:57 PM 44.4 °F 40.5 °F 39.4 °F 82% 29.77 in 10.0 mi NNW 6.9 mph - N/A   Overcast
7:17 PM 43.3 °F 41.7 °F 37.9 °F 81% 29.78 in 10.0 mi NNW 3.5 mph - N/A   Overcast
7:36 PM 42.3 °F 39.4 °F 37.4 °F 83% 29.80 in 10.0 mi NNW 4.6 mph - N/A   Overcast
7:57 PM 42.1 °F 40.2 °F 37.4 °F 83% 29.80 in 10.0 mi NNW 3.5 mph - N/A   Overcast
8:16 PM 41.9 °F 39.0 °F 37.6 °F 85% 29.82 in 10.0 mi NNW 4.6 mph - N/A   Overcast
8:36 PM 41.9 °F 40.0 °F 37.4 °F 84% 29.82 in 10.0 mi NW 3.5 mph - N/A   Overcast
8:57 PM 41.9 °F - 37.9 °F 86% 29.82 in 10.0 mi Calm Calm - N/A   Overcast
9:16 PM 41.2 °F - 38.3 °F 89% 29.83 in 10.0 mi Calm Calm - N/A   Overcast
9:36 PM 40.6 °F 38.6 °F 38.1 °F 91% 29.83 in 10.0 mi NW 3.5 mph - N/A   Mostly Cloudy
9:56 PM 40.6 °F 38.6 °F 38.1 °F 91% 29.84 in 10.0 mi WNW 3.5 mph - N/A   Mostly Cloudy
10:16 PM 39.6 °F - 37.4 °F 92% 29.85 in 10.0 mi Calm Calm - N/A   Overcast
10:36 PM 38.1 °F 35.7 °F 36.7 °F 95% 29.85 in 10.0 mi West 3.5 mph - N/A   Scattered Clouds
10:56 PM 39.2 °F 37.0 °F 37.4 °F 93% 29.85 in 10.0 mi West 3.5 mph - N/A   Mostly Cloudy
11:16 PM 38.8 °F 36.5 °F 37.2 °F 94% 29.86 in 10.0 mi West 3.5 mph - N/A   Overcast
11:36 PM 39.2 °F 35.9 °F 37.4 °F 93% 29.86 in 10.0 mi West 4.6 mph - N/A   Mostly Cloudy
11:56 PM 39.4 °F 36.1 °F 37.6 °F 93% 29.87 in 10.0 mi West 4.6 mph - N/A   Scattered Clouds